Hourly Weather Lota

Today, 4 August, Wednesday

Time Temperature Precipitation Wind Pressure Humidity
00:00 +11°C° 0 mm 1 mps 759 mmHg 85%
01:00 +11°C° 0 mm 1 mps 759 mmHg 86%
02:00 +11°C° 0 mm 1 mps 759 mmHg 87%
03:00 +11°C° 0 mm 1 mps 758 mmHg 87%
04:00 +11°C° 0 mm 1 mps 758 mmHg 88%
05:00 +10°C° 0 mm 1 mps 758 mmHg 88%
06:00 +10°C° 0 mm 1 mps 759 mmHg 88%
07:00 +9°C° 0 mm 0 mps 759 mmHg 88%
08:00 +13°C° 0 mm 1 mps 759 mmHg 77%
09:00 +15°C° 0 mm 2 mps 759 mmHg 66%
10:00 +18°C° 0 mm 2 mps 759 mmHg 55%
11:00 +19°C° 0 mm 3 mps 759 mmHg 52%
12:00 +20°C° 0 mm 3 mps 759 mmHg 50%
13:00 +21°C° 0 mm 4 mps 759 mmHg 47%
14:00 +19°C° 0 mm 3 mps 759 mmHg 54%
15:00 +18°C° 0 mm 3 mps 759 mmHg 61%
16:00 +16°C° 0 mm 3 mps 759 mmHg 69%
17:00 +13°C° 0 mm 3 mps 759 mmHg 78%
18:00 +12°C° 0 mm 3 mps 760 mmHg 87%
19:00 +10°C° 0 mm 3 mps 760 mmHg 96%
20:00 +10°C° 0 mm 3 mps 760 mmHg 95%
21:00 +10°C° 0 mm 4 mps 760 mmHg 94%
22:00 +11°C° 0 mm 4 mps 760 mmHg 92%
23:00 +11°C° 0 mm 4 mps 760 mmHg 91%

Tomorrow, 5 August, Thursday

Time Temperature Precipitation Wind Pressure Humidity
00:00 +11°C° 0 mm 4 mps 760 mmHg 90%
01:00 +11°C° 0 mm 4 mps 761 mmHg 88%
02:00 +11°C° 0 mm 4 mps 761 mmHg 87%
03:00 +11°C° 0 mm 3 mps 761 mmHg 85%
04:00 +11°C° 0 mm 3 mps 761 mmHg 84%
05:00 +11°C° 0 mm 3 mps 761 mmHg 83%
06:00 +11°C° 0 mm 3 mps 762 mmHg 82%
07:00 +12°C° 0 mm 2 mps 762 mmHg 82%
08:00 +13°C° 0 mm 2 mps 762 mmHg 78%
09:00 +13°C° 0 mm 2 mps 763 mmHg 74%
10:00 +14°C° 0 mm 2 mps 763 mmHg 70%
11:00 +15°C° 0 mm 2 mps 763 mmHg 66%
12:00 +16°C° 0 mm 2 mps 762 mmHg 62%
13:00 +17°C° 0 mm 2 mps 762 mmHg 58%
14:00 +16°C° 0 mm 2 mps 762 mmHg 63%
15:00 +16°C° 0 mm 2 mps 762 mmHg 67%
16:00 +15°C° 0 mm 2 mps 762 mmHg 72%
17:00 +14°C° 0 mm 1 mps 762 mmHg 77%
18:00 +13°C° 0 mm 1 mps 763 mmHg 83%
19:00 +11°C° 0 mm 1 mps 763 mmHg 88%
20:00 +11°C° 0 mm 1 mps 763 mmHg 89%
21:00 +11°C° 0 mm 1 mps 763 mmHg 91%
22:00 +11°C° 0 mm 1 mps 763 mmHg 92%
23:00 +11°C° 0 mm 1 mps 763 mmHg 93%

Day after tomorrow, 6 August, Friday

Time Temperature Precipitation Wind Pressure Humidity
00:00 +11°C° 0 mm 1 mps 763 mmHg 93%
01:00 +11°C° 0 mm 1 mps 762 mmHg 93%
02:00 +11°C° 0 mm 1 mps 762 mmHg 94%
03:00 +10°C° 0 mm 0 mps 762 mmHg 94%
04:00 +10°C° 0 mm 0 mps 762 mmHg 94%
05:00 +12°C° 0.1 mm 1 mps 762 mmHg 94%
06:00 +12°C° 0.1 mm 1 mps 762 mmHg 95%
07:00 +12°C° 0.1 mm 1 mps 762 mmHg 95%
08:00 +12°C° 0 mm 1 mps 762 mmHg 92%
09:00 +13°C° 0 mm 1 mps 762 mmHg 90%
10:00 +13°C° 0 mm 1 mps 762 mmHg 87%
11:00 +14°C° 0 mm 1 mps 762 mmHg 83%
12:00 +14°C° 0 mm 2 mps 762 mmHg 80%
13:00 +15°C° 0 mm 2 mps 762 mmHg 76%
14:00 +15°C° 0 mm 2 mps 762 mmHg 74%
15:00 +14°C° 0 mm 2 mps 762 mmHg 73%
16:00 +13°C° 0 mm 3 mps 762 mmHg 71%
17:00 +12°C° 0 mm 3 mps 762 mmHg 78%
18:00 +11°C° 0 mm 3 mps 763 mmHg 84%
19:00 +10°C° 0 mm 3 mps 763 mmHg 90%
20:00 +10°C° 0 mm 2 mps 763 mmHg 90%
21:00 +10°C° 0 mm 2 mps 763 mmHg 90%
22:00 +10°C° 0 mm 2 mps 764 mmHg 90%
23:00 +10°C° 0 mm 2 mps 764 mmHg 90%

7 August, Saturday

Time Temperature Precipitation Wind Pressure Humidity
00:00 +10°C° 0 mm 3 mps 763 mmHg 90%
01:00 +9°C° 0 mm 3 mps 763 mmHg 90%
02:00 +9°C° 0 mm 3 mps 763 mmHg 88%
03:00 +9°C° 0 mm 3 mps 763 mmHg 87%
04:00 +9°C° 0 mm 3 mps 763 mmHg 85%
05:00 +9°C° 0 mm 3 mps 763 mmHg 85%
06:00 +8°C° 0 mm 3 mps 764 mmHg 85%
07:00 +8°C° 0 mm 3 mps 764 mmHg 85%
08:00 +9°C° 0 mm 3 mps 764 mmHg 76%
09:00 +11°C° 0 mm 3 mps 764 mmHg 68%
10:00 +12°C° 0 mm 3 mps 764 mmHg 60%
11:00 +13°C° 0 mm 3 mps 763 mmHg 53%
12:00 +14°C° 0 mm 3 mps 763 mmHg 47%
13:00 +16°C° 0 mm 3 mps 762 mmHg 41%
14:00 +14°C° 0 mm 4 mps 762 mmHg 43%
15:00 +13°C° 0 mm 4 mps 762 mmHg 45%
16:00 +12°C° 0 mm 5 mps 762 mmHg 48%
17:00 +10°C° 0 mm 4 mps 762 mmHg 55%
18:00 +8°C° 0 mm 3 mps 763 mmHg 62%
19:00 +7°C° 0 mm 3 mps 763 mmHg 69%
20:00 +5°C° 0 mm 3 mps 763 mmHg 71%
21:00 +6°C° 0 mm 2 mps 763 mmHg 72%
22:00 +6°C° 0 mm 2 mps 763 mmHg 73%
23:00 +6°C° 0 mm 2 mps 762 mmHg 70%

8 August, Sunday

Time Temperature Precipitation Wind Pressure Humidity
00:00 +5°C° 0 mm 2 mps 762 mmHg 68%
01:00 +5°C° 0 mm 2 mps 762 mmHg 66%
02:00 +5°C° 0 mm 2 mps 762 mmHg 66%
03:00 +5°C° 0 mm 2 mps 762 mmHg 66%
04:00 +6°C° 0 mm 1 mps 761 mmHg 65%
05:00 +6°C° 0 mm 1 mps 762 mmHg 65%
06:00 +6°C° 0 mm 1 mps 762 mmHg 65%
07:00 +6°C° 0 mm 1 mps 762 mmHg 66%
08:00 +8°C° 0 mm 1 mps 762 mmHg 58%
09:00 +10°C° 0 mm 1 mps 762 mmHg 51%
10:00 +12°C° 0 mm 1 mps 762 mmHg 44%
11:00 +14°C° 0 mm 1 mps 762 mmHg 42%
12:00 +15°C° 0 mm 1 mps 762 mmHg 40%
13:00 +18°C° 0 mm 1 mps 762 mmHg 38%
14:00 +16°C° 0 mm 1 mps 762 mmHg 42%
15:00 +16°C° 0 mm 1 mps 762 mmHg 46%
16:00 +15°C° 0 mm 1 mps 762 mmHg 50%
17:00 +13°C° 0 mm 1 mps 762 mmHg 60%
18:00 +11°C° 0 mm 1 mps 763 mmHg 69%
19:00 +8°C° 0 mm 2 mps 763 mmHg 78%
20:00 +8°C° 0 mm 1 mps 763 mmHg 80%
21:00 +8°C° 0 mm 1 mps 764 mmHg 83%
22:00 +8°C° 0 mm 1 mps 764 mmHg 86%
23:00 +7°C° 0 mm 1 mps 764 mmHg 86%

9 August, Monday

Time Temperature Precipitation Wind Pressure Humidity
00:00 +7°C° 0 mm 1 mps 764 mmHg 87%
01:00 +7°C° 0 mm 1 mps 764 mmHg 87%
02:00 +7°C° 0 mm 1 mps 764 mmHg 88%
03:00 +7°C° 0 mm 1 mps 764 mmHg 90%
04:00 +6°C° 0 mm 1 mps 764 mmHg 91%
05:00 +6°C° 0 mm 1 mps 764 mmHg 91%
06:00 +6°C° 0 mm 1 mps 764 mmHg 91%
07:00 +6°C° 0 mm 1 mps 765 mmHg 92%
08:00 +9°C° 0 mm 1 mps 765 mmHg 81%
09:00 +11°C° 0 mm 1 mps 765 mmHg 69%
10:00 +14°C° 0 mm 1 mps 765 mmHg 58%
11:00 +15°C° 0 mm 1 mps 765 mmHg 57%
12:00 +16°C° 0 mm 2 mps 765 mmHg 56%
13:00 +16°C° 0 mm 2 mps 765 mmHg 54%
14:00 +15°C° 0 mm 2 mps 766 mmHg 60%
15:00 +14°C° 0 mm 2 mps 766 mmHg 65%
16:00 +13°C° 0 mm 2 mps 766 mmHg 70%
17:00 +12°C° 0 mm 1 mps 767 mmHg 79%
18:00 +10°C° 0 mm 1 mps 767 mmHg 87%
19:00 +8°C° 0 mm 1 mps 767 mmHg 96%
20:00 +8°C° 0 mm 1 mps 767 mmHg 96%
21:00 +8°C° 0 mm 1 mps 768 mmHg 96%
22:00 +6°C° 0 mm 2 mps 768 mmHg 96%
23:00 +6°C° 0 mm 2 mps 767 mmHg 96%
Show more

We Need Your Consent

Meteoprog and our Service Providers may store and access personal data such as cookies, device identifiers or other similar technologies on your device and process such data to personalise content and ads, as well as provide social media features and to analyse the traffic.

  • Store and/or access information on your device

    Cookies, device identifiers or other information can be stored or accessed on your device for the purposes indicated above.

  • Personalised ads and content, ad and content measurement, audience insights, and products development

    Ads and content can be personalised based on a profile. More data can be added to better personalise ads and content. Ad and content performance can be measured. Insights about the audience who saw the ads and content can be derived. Such data can be used to develop or improve user’s experience, systems and software.

By clicking ‘I Agree’ you will allow the use of indicated cookies, device identifiers, web beacons or other similar technologies. Your settings can be changed in the browser on your device.

For certain purposes, legitimate interests may be relied on, rather than consent. You can read more about this in our Privacy and Cookie Policy.